Date,Time,Wetness (Wet Dry or Ice),Wind Speed (m/s),Temperature (C),Humidity (%),Pressure (mb),Radiation (W/m^2)
2020-07-20,23:45:00,DRY,5.30,16.90,9.0,778.00,1.4
2020-07-20,23:50:00,DRY,5.07,16.97,9.7,778.00,1.7
2020-07-20,23:55:00,DRY,4.85,16.90,10.0,778.00,1.4
2020-07-21,00:00:00,DRY,5.20,16.90,10.0,778.00,1.2
2020-07-21,00:05:00,DRY,5.05,17.00,10.0,778.00,1.1
2020-07-21,00:10:00,DRY,4.87,16.90,9.7,777.67,1.2
2020-07-21,00:15:00,DRY,5.60,16.85,10.0,778.00,1.3
2020-07-21,00:20:00,DRY,4.60,16.93,9.0,777.00,1.5
2020-07-21,00:25:00,DRY,5.70,17.00,9.5,777.00,1.3
2020-07-21,00:30:00,DRY,6.07,16.93,8.3,777.00,1.4
2020-07-21,00:35:00,DRY,5.90,17.00,7.0,777.00,1.4
2020-07-21,00:40:00,DRY,5.27,16.90,6.0,777.00,1.6
2020-07-21,00:45:00,DRY,5.90,16.80,5.5,777.00,1.6
2020-07-21,00:50:00,DRY,5.20,16.90,4.0,777.00,1.3
2020-07-21,00:55:00,DRY,5.70,16.80,4.0,777.00,1.4
2020-07-21,01:00:00,DRY,5.70,16.93,5.0,777.00,1.2
2020-07-21,01:05:00,DRY,6.70,16.85,5.5,777.00,1.1
2020-07-21,01:10:00,DRY,6.70,16.83,8.0,777.00,1.1
2020-07-21,01:15:00,DRY,6.40,16.80,9.5,777.00,1.6
2020-07-21,01:20:00,DRY,5.73,16.73,9.3,777.00,1.1
2020-07-21,01:25:00,DRY,5.05,16.55,7.5,777.00,1.2
2020-07-21,01:30:00,DRY,5.67,16.57,9.3,777.00,1.2
2020-07-21,01:35:00,DRY,5.45,16.55,10.0,777.00,1.1
2020-07-21,01:40:00,DRY,6.60,16.67,12.3,777.00,0.8
2020-07-21,01:45:00,DRY,5.65,16.70,13.0,777.00,1.1
2020-07-21,01:50:00,DRY,5.60,16.70,12.0,777.00,1.3
2020-07-21,01:55:00,DRY,5.00,16.60,13.5,777.00,1.4
2020-07-21,02:00:00,DRY,4.50,16.63,13.3,777.00,1.9
2020-07-21,02:05:00,DRY,5.50,16.70,14.0,777.00,1.6
2020-07-21,02:10:00,DRY,6.90,16.73,14.3,777.00,0.9
2020-07-21,02:15:00,DRY,5.35,16.70,14.5,777.00,1.1
2020-07-21,02:20:00,DRY,6.57,16.83,15.0,777.00,0.9
2020-07-21,02:25:00,DRY,6.10,16.75,15.0,777.00,1.1
2020-07-21,02:30:00,DRY,5.10,16.73,14.7,777.00,1.1
2020-07-21,02:35:00,DRY,5.95,16.75,15.0,777.00,1.1
2020-07-21,02:40:00,DRY,5.90,16.70,15.0,777.00,1.4
2020-07-21,02:45:00,DRY,3.55,16.85,15.0,777.00,1.8
2020-07-21,02:50:00,DRY,5.83,16.67,15.0,777.00,1.3
2020-07-21,02:55:00,DRY,4.50,16.70,15.0,777.00,1.1
2020-07-21,03:00:00,DRY,4.53,16.73,15.0,777.00,1.2
2020-07-21,03:05:00,DRY,5.80,16.85,15.0,777.00,0.8
2020-07-21,03:10:00,DRY,4.33,16.87,14.7,777.00,1.1
2020-07-21,03:15:00,DRY,5.10,16.65,15.0,777.00,1.1
2020-07-21,03:20:00,DRY,5.17,16.70,15.0,777.00,1.2
2020-07-21,03:25:00,DRY,3.65,16.65,15.0,777.00,0.9
2020-07-21,03:30:00,DRY,4.33,16.57,15.0,777.00,1.5
2020-07-21,03:35:00,DRY,4.75,16.65,15.0,777.00,1.1
2020-07-21,03:40:00,DRY,4.83,16.67,15.3,777.00,1.3
2020-07-21,03:45:00,DRY,5.95,16.75,15.0,777.00,1.1
2020-07-21,03:50:00,DRY,5.00,16.63,15.0,777.00,1.1
2020-07-21,03:55:00,DRY,4.15,16.55,15.0,777.00,1.2
2020-07-21,04:00:00,DRY,4.80,16.63,15.0,776.33,1.0
2020-07-21,04:05:00,DRY,5.10,16.60,15.0,776.50,1.2
2020-07-21,04:10:00,DRY,4.77,16.50,15.0,777.00,1.0
2020-07-21,04:15:00,DRY,4.80,16.50,15.0,777.00,1.2
2020-07-21,04:20:00,DRY,5.07,16.57,15.3,777.00,1.2
2020-07-21,04:25:00,DRY,4.75,16.50,15.5,777.00,1.7
2020-07-21,04:30:00,DRY,4.35,16.55,15.0,776.50,1.1
2020-07-21,04:35:00,DRY,4.10,16.60,15.5,777.00,1.4
2020-07-21,04:40:00,DRY,4.00,16.60,16.0,777.00,2.2
2020-07-21,04:45:00,DRY,3.70,16.45,16.0,777.00,1.6
2020-07-21,04:50:00,DRY,5.07,16.50,15.3,777.00,1.2
2020-07-21,04:55:00,DRY,4.05,16.55,15.5,777.00,1.1
2020-07-21,05:00:00,DRY,4.23,16.50,15.3,777.00,1.2
2020-07-21,05:05:00,DRY,4.05,16.60,15.0,777.00,1.1
2020-07-21,05:10:00,DRY,4.13,16.43,15.0,777.00,1.8
2020-07-21,05:15:00,DRY,5.25,16.50,15.0,777.00,1.4
2020-07-21,05:20:00,DRY,4.43,16.57,15.0,777.00,1.0
2020-07-21,05:25:00,DRY,4.95,16.45,15.0,777.00,1.4
2020-07-21,05:30:00,DRY,4.30,16.43,15.0,777.00,1.6
2020-07-21,05:35:00,DRY,3.80,16.40,15.5,777.00,1.1
2020-07-21,05:40:00,DRY,3.97,16.33,15.7,777.00,1.1
2020-07-21,05:45:00,DRY,4.35,16.40,16.0,777.00,1.0
2020-07-21,05:50:00,DRY,3.53,16.37,16.0,777.00,1.2
2020-07-21,05:55:00,DRY,3.90,16.30,16.0,777.00,0.9
2020-07-21,06:00:00,DRY,3.97,16.40,15.7,777.00,1.3
2020-07-21,06:05:00,DRY,4.10,16.55,15.0,777.00,1.1
2020-07-21,06:10:00,DRY,3.73,16.43,15.0,777.00,1.7
2020-07-21,06:15:00,DRY,4.55,16.45,15.0,777.00,2.6
2020-07-21,06:20:00,DRY,3.93,16.50,15.0,777.00,4.5
2020-07-21,06:25:00,DRY,3.80,16.60,15.0,777.00,6.8
2020-07-21,06:30:00,DRY,3.63,16.60,15.0,777.00,13.9
2020-07-21,06:35:00,DRY,3.45,16.60,14.5,777.00,31.8
2020-07-21,06:40:00,DRY,3.47,16.63,14.0,777.00,49.2
2020-07-21,06:45:00,DRY,4.20,16.60,13.0,777.00,70.3
2020-07-21,06:50:00,DRY,4.70,16.67,13.0,777.00,95.5
2020-07-21,06:55:00,DRY,4.60,16.70,13.0,777.00,119.4
2020-07-21,07:00:00,DRY,5.47,16.80,12.7,777.00,138.5
2020-07-21,07:05:00,DRY,4.45,16.90,13.0,777.00,157.9
2020-07-21,07:10:00,DRY,3.73,16.97,13.0,777.00,177.8
2020-07-21,07:15:00,DRY,3.65,17.10,13.0,777.00,198.3
2020-07-21,07:20:00,DRY,3.87,17.20,13.0,777.00,219.7
2020-07-21,07:25:00,DRY,4.00,17.25,13.0,777.00,241.1
2020-07-21,07:30:00,DRY,3.87,17.33,13.7,777.00,263.6
2020-07-21,07:35:00,DRY,3.35,17.45,13.0,777.00,284.6
2020-07-21,07:40:00,DRY,3.07,17.63,13.7,777.00,308.0
2020-07-21,07:45:00,DRY,3.35,17.75,14.0,777.00,329.6
2020-07-21,07:50:00,DRY,3.03,18.00,14.3,777.00,352.3
2020-07-21,07:55:00,DRY,2.70,17.95,14.5,777.00,374.6
2020-07-21,08:00:00,DRY,3.10,18.10,15.3,777.00,396.9
2020-07-21,08:05:00,DRY,3.45,18.25,15.5,777.00,419.6
2020-07-21,08:10:00,DRY,3.10,18.40,15.7,777.00,441.6
2020-07-21,08:15:00,DRY,2.95,18.60,15.5,777.00,463.9
2020-07-21,08:20:00,DRY,2.57,18.63,15.3,777.00,485.6
2020-07-21,08:25:00,DRY,2.90,18.70,14.5,777.00,507.4
2020-07-21,08:30:00,DRY,3.20,18.77,15.0,777.00,530.4
2020-07-21,08:35:00,DRY,3.30,18.65,15.0,777.00,551.6
2020-07-21,08:40:00,DRY,3.00,18.73,15.3,777.00,573.3
2020-07-21,08:45:00,DRY,2.70,19.00,15.0,777.00,594.5
2020-07-21,08:50:00,DRY,2.80,19.13,15.3,777.00,616.3
2020-07-21,08:55:00,DRY,3.20,19.20,14.5,777.00,635.4
2020-07-21,09:00:00,DRY,2.27,19.30,14.7,777.00,657.3
2020-07-21,09:05:00,DRY,2.10,19.45,14.5,777.00,676.8
2020-07-21,09:10:00,DRY,2.47,19.27,14.3,777.00,697.2
2020-07-21,09:15:00,DRY,2.55,19.40,13.5,777.00,716.5
2020-07-21,09:20:00,DRY,2.57,19.40,15.0,777.00,735.0
2020-07-21,09:25:00,DRY,2.70,19.70,13.5,777.00,755.8
2020-07-21,09:30:00,DRY,3.37,19.57,14.3,777.00,774.8
2020-07-21,09:35:00,DRY,2.55,19.65,14.0,777.00,794.0
2020-07-21,09:40:00,DRY,3.27,19.73,14.3,777.00,810.5
2020-07-21,09:45:00,DRY,2.70,19.95,14.5,777.00,829.6
2020-07-21,09:50:00,DRY,2.23,20.10,14.0,777.00,846.4
2020-07-21,09:55:00,DRY,3.90,19.85,13.5,777.00,865.2
2020-07-21,10:00:00,DRY,2.50,19.77,13.3,777.00,881.1
2020-07-21,10:05:00,DRY,3.35,19.95,13.0,777.00,898.2
2020-07-21,10:10:00,DRY,4.30,20.20,13.3,777.00,914.4
2020-07-21,10:15:00,DRY,3.50,19.80,12.5,777.00,930.5
2020-07-21,10:20:00,DRY,4.07,19.83,12.3,777.00,945.8
2020-07-21,10:25:00,DRY,3.90,20.05,12.0,777.00,960.6
2020-07-21,10:30:00,DRY,3.83,20.00,12.3,777.00,975.7
2020-07-21,10:35:00,,,,,,
2020-07-21,10:40:00,DRY,3.25,20.30,12.0,777.00,1007.2
2020-07-21,10:45:00,DRY,4.40,20.45,11.5,777.00,1017.3
2020-07-21,10:50:00,DRY,4.10,20.23,12.3,777.33,1031.5
2020-07-21,10:55:00,DRY,3.85,20.20,12.0,777.00,1043.8
2020-07-21,11:00:00,DRY,3.43,20.43,12.0,777.00,1056.9
2020-07-21,11:05:00,DRY,3.15,20.45,12.5,777.50,1067.7
2020-07-21,11:10:00,DRY,3.10,20.17,13.7,778.00,1080.0
2020-07-21,11:15:00,DRY,3.10,20.15,14.0,777.00,1091.9
2020-07-21,11:20:00,DRY,2.80,20.47,13.3,777.67,1099.9
2020-07-21,11:25:00,DRY,3.00,20.55,14.0,777.50,1108.0
2020-07-21,11:30:00,DRY,2.50,20.67,13.7,777.67,1119.1
2020-07-21,11:35:00,DRY,3.05,21.10,15.0,778.00,1128.0
2020-07-21,11:40:00,DRY,3.40,20.77,14.0,777.33,1136.6
2020-07-21,11:45:00,DRY,2.35,21.05,13.5,778.00,1144.1
2020-07-21,11:50:00,DRY,3.37,20.97,14.3,778.00,1153.2
2020-07-21,11:55:00,DRY,2.85,20.80,14.0,778.00,1161.8
2020-07-21,12:00:00,DRY,3.10,21.07,14.7,778.00,1166.9
2020-07-21,12:05:00,DRY,3.25,21.35,13.5,778.00,1173.7
2020-07-21,12:10:00,DRY,3.03,21.57,14.0,778.00,1179.1
2020-07-21,12:15:00,DRY,3.55,21.45,14.5,778.00,1182.8
2020-07-21,12:20:00,DRY,3.63,21.40,14.0,778.00,1187.9
2020-07-21,12:25:00,DRY,2.45,21.00,14.5,778.00,1190.0
2020-07-21,12:30:00,DRY,3.43,21.50,14.3,778.00,1195.0
2020-07-21,12:35:00,DRY,1.95,21.10,15.0,778.00,1198.1
2020-07-21,12:40:00,DRY,3.20,22.03,14.3,778.00,1200.4
2020-07-21,12:45:00,DRY,4.20,22.05,15.5,778.00,1202.0
2020-07-21,12:50:00,DRY,3.27,21.57,15.0,778.00,1203.1
2020-07-21,12:55:00,DRY,3.60,21.70,15.0,778.00,1204.4
2020-07-21,13:00:00,DRY,2.97,21.03,15.7,778.00,1205.9
2020-07-21,13:05:00,DRY,3.30,21.95,14.5,778.00,1208.7
2020-07-21,13:10:00,DRY,3.23,21.37,14.3,778.00,1208.5
2020-07-21,13:15:00,DRY,3.00,21.50,14.5,778.00,1210.2
2020-07-21,13:20:00,DRY,3.47,21.63,16.0,778.00,1207.7
2020-07-21,13:25:00,DRY,2.40,21.65,13.5,778.00,1209.7
2020-07-21,13:30:00,DRY,3.80,21.80,16.0,778.00,1209.2
2020-07-21,13:35:00,DRY,3.15,21.80,15.5,778.00,1205.3
2020-07-21,13:40:00,DRY,3.87,21.73,15.3,778.00,1204.8
2020-07-21,13:45:00,DRY,4.20,21.75,15.0,778.00,1201.9
2020-07-21,13:50:00,DRY,4.10,22.07,15.7,778.00,1200.1
2020-07-21,13:55:00,DRY,2.90,21.35,15.0,778.00,1198.8
2020-07-21,14:00:00,DRY,3.70,21.60,17.0,778.00,1195.4
2020-07-21,14:05:00,DRY,3.35,22.05,16.0,778.00,1189.0
2020-07-21,14:10:00,DRY,3.67,22.03,16.3,778.00,1187.7
2020-07-21,14:15:00,DRY,3.05,21.90,16.5,778.00,1183.6
2020-07-21,14:20:00,DRY,2.60,22.00,16.7,778.00,1174.6
2020-07-21,14:25:00,DRY,3.15,21.70,16.5,777.50,1169.5
2020-07-21,14:30:00,DRY,2.53,22.17,16.3,778.00,1161.7
2020-07-21,14:35:00,DRY,1.95,21.75,16.5,778.00,1156.0
2020-07-21,14:40:00,DRY,2.93,22.67,16.3,778.00,1148.8
2020-07-21,14:45:00,DRY,3.40,21.80,16.0,778.00,1141.4
2020-07-21,14:50:00,DRY,3.33,22.10,15.3,778.00,1135.1
2020-07-21,14:55:00,DRY,4.45,22.10,16.5,778.00,1127.5
2020-07-21,15:00:00,DRY,3.93,22.23,14.7,778.00,1114.4
2020-07-21,15:05:00,DRY,3.35,23.20,16.5,778.00,1104.1
2020-07-21,15:10:00,DRY,3.77,21.87,14.7,777.67,1097.3
2020-07-21,15:15:00,DRY,2.80,21.90,15.0,777.00,1085.2
2020-07-21,15:20:00,DRY,2.57,22.37,14.7,778.00,1074.0
2020-07-21,15:25:00,DRY,3.15,22.20,14.5,778.00,1061.5
2020-07-21,15:30:00,DRY,3.13,22.20,15.7,777.67,1051.0
2020-07-21,15:35:00,DRY,2.20,22.10,16.0,777.50,1037.8
2020-07-21,15:40:00,DRY,2.33,21.00,16.7,778.00,1023.2
2020-07-21,15:45:00,DRY,2.10,21.95,16.0,777.50,1008.4
2020-07-21,15:50:00,DRY,3.13,22.20,16.0,777.67,997.3
2020-07-21,15:55:00,DRY,2.95,22.25,16.5,778.00,980.5
2020-07-21,16:00:00,DRY,3.00,22.40,15.3,777.00,963.9
2020-07-21,16:05:00,DRY,2.20,22.35,14.5,778.00,951.5
2020-07-21,16:10:00,DRY,3.20,22.87,14.7,777.00,936.3
2020-07-21,16:15:00,DRY,2.80,22.35,14.5,777.00,920.8
2020-07-21,16:20:00,DRY,2.63,22.03,14.7,777.00,907.4
2020-07-21,16:25:00,DRY,3.20,22.30,16.0,777.00,888.6
2020-07-21,16:30:00,DRY,2.37,22.17,15.0,777.33,871.4
2020-07-21,16:35:00,DRY,2.55,22.25,16.0,777.00,852.6
2020-07-21,16:40:00,DRY,2.67,21.73,15.7,777.33,837.0
2020-07-21,16:45:00,DRY,3.80,22.30,16.0,777.00,817.9
2020-07-21,16:50:00,DRY,2.57,21.93,14.7,777.00,800.3
2020-07-21,16:55:00,DRY,2.80,21.50,15.5,777.00,783.0
2020-07-21,17:00:00,DRY,2.63,22.27,14.0,777.00,764.2
2020-07-21,17:05:00,DRY,2.50,21.55,15.0,777.00,747.2
2020-07-21,17:10:00,DRY,3.43,22.03,15.3,777.00,725.7
2020-07-21,17:15:00,DRY,3.00,21.05,15.0,777.00,708.5
2020-07-21,17:20:00,DRY,3.70,21.47,14.3,777.00,685.9
2020-07-21,17:25:00,DRY,3.25,21.60,15.0,777.00,667.6
2020-07-21,17:30:00,DRY,3.17,21.40,15.0,777.00,648.1
2020-07-21,17:35:00,DRY,3.85,21.55,14.5,777.00,626.9
2020-07-21,17:40:00,DRY,2.80,21.07,14.3,777.00,606.9
2020-07-21,17:45:00,DRY,3.55,21.05,15.0,777.00,585.4
2020-07-21,17:50:00,DRY,2.77,21.37,15.0,777.00,565.5
2020-07-21,17:55:00,DRY,2.70,21.50,14.5,777.00,543.8
2020-07-21,18:00:00,DRY,2.67,21.60,15.0,777.00,521.2
2020-07-21,18:05:00,DRY,3.00,21.40,15.0,777.00,496.3
2020-07-21,18:10:00,DRY,2.53,20.73,15.7,777.00,478.5
2020-07-21,18:15:00,DRY,2.60,20.55,15.0,777.00,456.3
2020-07-21,18:20:00,DRY,3.33,20.77,15.7,777.00,434.7
2020-07-21,18:25:00,DRY,2.50,20.65,15.0,777.00,412.4
2020-07-21,18:30:00,DRY,2.93,20.67,15.0,777.00,389.8
2020-07-21,18:35:00,DRY,3.35,20.60,15.0,777.00,368.0
2020-07-21,18:40:00,DRY,3.97,20.47,15.0,777.00,345.6
2020-07-21,18:45:00,DRY,3.60,20.20,14.5,777.00,323.9
2020-07-21,18:50:00,DRY,3.60,19.77,15.3,777.00,301.5
2020-07-21,18:55:00,DRY,3.35,19.85,15.5,777.00,279.8
2020-07-21,19:00:00,DRY,2.50,19.57,15.7,777.00,258.2
2020-07-21,19:05:00,DRY,3.35,19.40,15.5,777.00,238.7
2020-07-21,19:10:00,DRY,2.20,19.37,15.7,777.00,217.5
2020-07-21,19:15:00,DRY,2.10,19.15,15.5,777.00,197.2
2020-07-21,19:20:00,DRY,1.87,18.87,15.3,777.00,177.5
2020-07-21,19:25:00,DRY,2.55,18.75,16.0,777.00,159.8
2020-07-21,19:30:00,DRY,2.63,18.73,16.0,777.00,139.5
2020-07-21,19:35:00,DRY,2.30,18.50,16.0,777.00,112.5
2020-07-21,19:40:00,DRY,1.83,18.47,16.0,777.33,88.1
2020-07-21,19:45:00,DRY,0.85,18.45,15.5,777.50,66.5
2020-07-21,19:50:00,DRY,0.83,18.87,15.0,778.00,47.3
2020-07-21,19:55:00,DRY,1.05,18.85,14.0,778.00,30.9
2020-07-21,20:00:00,DRY,1.13,18.73,15.0,778.00,18.6
2020-07-21,20:05:00,DRY,1.55,18.65,14.5,778.00,13.6
2020-07-21,20:10:00,DRY,2.10,18.33,15.3,778.00,9.8
2020-07-21,20:15:00,DRY,2.15,17.85,16.0,778.00,4.4
2020-07-21,20:20:00,DRY,2.60,17.57,16.7,778.00,2.7
2020-07-21,20:25:00,DRY,2.20,17.20,17.0,778.00,1.9
2020-07-21,20:30:00,DRY,1.07,17.10,16.3,778.00,0.7
2020-07-21,20:35:00,DRY,1.15,17.35,16.5,778.00,2.0
2020-07-21,20:40:00,DRY,1.73,17.07,17.0,778.00,1.9
2020-07-21,20:45:00,DRY,1.95,16.80,18.0,778.00,0.3
2020-07-21,20:50:00,DRY,1.93,17.03,17.3,778.00,1.4
2020-07-21,20:55:00,DRY,2.10,17.15,17.0,778.00,0.2
2020-07-21,21:00:00,DRY,2.13,17.00,16.7,778.00,0.8
2020-07-21,21:05:00,DRY,2.40,17.25,16.0,778.00,1.9
2020-07-21,21:10:00,DRY,1.93,17.23,16.3,778.00,1.0
2020-07-21,21:15:00,DRY,1.75,17.20,16.0,778.00,1.5
2020-07-21,21:20:00,DRY,1.33,17.43,16.0,778.00,1.6
2020-07-21,21:25:00,DRY,1.35,17.60,15.5,778.00,1.1
2020-07-21,21:30:00,DRY,1.37,17.37,16.0,778.00,1.1
2020-07-21,21:35:00,DRY,0.95,17.55,16.0,778.00,1.5
2020-07-21,21:40:00,DRY,1.77,17.30,16.0,778.00,0.8
2020-07-21,21:45:00,DRY,1.20,17.15,17.0,778.00,1.3
2020-07-21,21:50:00,DRY,1.73,17.07,17.0,778.00,1.3
2020-07-21,21:55:00,DRY,1.40,16.95,17.0,779.00,0.7
2020-07-21,22:00:00,DRY,1.37,17.03,17.0,778.67,1.5
2020-07-21,22:05:00,DRY,1.80,17.15,16.5,779.00,0.8
2020-07-21,22:10:00,DRY,1.67,17.10,16.0,778.67,1.1
2020-07-21,22:15:00,DRY,1.10,17.25,15.5,779.00,1.1
2020-07-21,22:20:00,DRY,1.63,17.67,14.0,779.00,1.0
2020-07-21,22:25:00,DRY,1.40,17.70,14.0,779.00,2.0
2020-07-21,22:30:00,DRY,1.37,17.70,14.0,779.00,1.5
2020-07-21,22:35:00,DRY,1.75,17.50,14.5,779.00,1.2
2020-07-21,22:40:00,DRY,2.00,17.43,15.0,779.00,1.5
2020-07-21,22:45:00,DRY,2.25,17.55,15.0,779.00,1.8
2020-07-21,22:50:00,DRY,2.00,17.40,15.3,779.00,1.5
2020-07-21,22:55:00,DRY,1.75,17.05,16.0,779.00,1.3
2020-07-21,23:00:00,DRY,1.77,17.10,15.3,779.00,1.6
2020-07-21,23:05:00,DRY,1.40,17.00,15.0,779.00,2.1
2020-07-21,23:10:00,DRY,1.47,17.10,15.7,779.00,1.7
2020-07-21,23:15:00,DRY,1.85,17.05,16.0,779.00,0.3
2020-07-21,23:20:00,DRY,1.40,17.20,15.3,779.00,1.6
2020-07-21,23:25:00,DRY,1.55,17.25,15.0,779.00,1.1
2020-07-21,23:30:00,DRY,1.07,17.50,15.0,779.00,1.1
2020-07-21,23:35:00,DRY,0.90,17.70,13.5,779.00,0.8
2020-07-21,23:40:00,DRY,0.93,17.87,10.0,779.00,1.0
2020-07-21,23:45:00,DRY,1.05,18.00,11.0,779.00,0.7
2020-07-21,23:50:00,DRY,0.70,17.70,13.7,779.00,1.3
2020-07-21,23:55:00,DRY,1.30,17.60,13.0,779.00,1.8
2020-07-22,00:00:00,DRY,0.70,17.23,12.7,779.00,0.9
2020-07-22,00:05:00,DRY,0.90,17.15,7.0,779.00,0.9
2020-07-22,00:10:00,DRY,0.80,17.33,10.0,779.00,2.1
2020-07-22,00:15:00,DRY,0.90,17.45,7.0,779.00,1.4
2020-07-22,00:20:00,DRY,1.03,17.50,5.0,779.00,1.2
2020-07-22,00:25:00,DRY,1.25,17.70,6.0,779.00,1.7
2020-07-22,00:30:00,DRY,0.80,17.60,5.7,779.00,1.1
2020-07-22,00:35:00,DRY,1.40,17.70,5.0,778.50,1.2
2020-07-22,00:40:00,DRY,1.07,17.70,4.7,778.67,0.6
2020-07-22,00:45:00,DRY,1.15,17.80,4.0,778.00,1.3
2020-07-22,00:50:00,DRY,1.23,17.60,5.0,778.00,1.0
2020-07-22,00:55:00,DRY,0.95,17.75,5.0,778.00,1.2
2020-07-22,01:00:00,DRY,1.43,17.60,6.0,778.00,1.5
2020-07-22,01:05:00,DRY,1.50,17.50,5.0,778.00,1.0
2020-07-22,01:10:00,DRY,2.00,17.47,5.0,778.00,1.0
2020-07-22,01:15:00,DRY,1.45,17.45,5.0,778.00,0.8
2020-07-22,01:20:00,DRY,2.07,17.37,5.7,778.00,2.2
2020-07-22,01:25:00,DRY,2.30,17.60,6.0,778.00,1.6
2020-07-22,01:30:00,DRY,2.33,17.90,5.7,778.00,1.0
2020-07-22,01:35:00,DRY,2.40,18.10,5.5,778.00,0.9
2020-07-22,01:40:00,DRY,2.57,18.07,5.3,778.00,0.6
2020-07-22,01:45:00,DRY,2.85,18.20,6.0,778.00,1.1
2020-07-22,01:50:00,DRY,2.27,17.83,6.0,778.00,0.9
2020-07-22,01:55:00,DRY,2.05,17.55,5.0,778.00,1.9
2020-07-22,02:00:00,DRY,2.40,17.87,4.7,778.00,0.9
2020-07-22,02:05:00,DRY,2.30,18.00,4.5,778.00,0.4
2020-07-22,02:10:00,DRY,2.50,17.77,5.3,778.00,1.9
2020-07-22,02:15:00,DRY,2.25,17.55,5.0,778.00,1.4
2020-07-22,02:20:00,DRY,2.20,17.83,5.0,778.00,1.1
2020-07-22,02:25:00,DRY,2.25,17.90,5.0,778.00,1.6
2020-07-22,02:30:00,DRY,2.17,17.70,5.0,778.00,0.5
2020-07-22,02:35:00,DRY,2.45,17.85,5.0,778.00,0.9
2020-07-22,02:40:00,DRY,2.40,17.90,4.7,778.00,1.2
2020-07-22,02:45:00,DRY,2.70,18.20,4.0,778.00,1.1
2020-07-22,02:50:00,DRY,2.63,18.03,4.0,778.00,1.8
2020-07-22,02:55:00,DRY,2.55,18.15,4.0,778.00,1.9
2020-07-22,03:00:00,DRY,2.30,17.97,4.0,778.00,1.4
2020-07-22,03:05:00,DRY,1.90,17.95,4.0,778.00,0.8
2020-07-22,03:10:00,DRY,2.17,18.00,4.0,778.00,0.8
2020-07-22,03:15:00,DRY,2.20,18.15,4.0,778.00,2.2
2020-07-22,03:20:00,DRY,2.17,18.20,4.0,778.00,1.7
2020-07-22,03:25:00,DRY,2.60,18.15,4.0,778.00,1.3
2020-07-22,03:30:00,DRY,2.63,18.50,8.3,778.00,1.0
2020-07-22,03:35:00,DRY,2.20,18.10,9.0,778.00,0.6
2020-07-22,03:40:00,DRY,3.17,18.17,9.3,778.00,0.9
2020-07-22,03:45:00,DRY,2.40,18.40,11.0,777.50,1.1
2020-07-22,03:50:00,DRY,2.20,18.50,11.7,778.00,1.2
2020-07-22,03:55:00,DRY,1.40,18.15,11.5,778.00,2.1
2020-07-22,04:00:00,DRY,1.33,18.27,11.0,777.67,1.2
2020-07-22,04:05:00,DRY,1.00,18.20,11.5,778.00,1.6
2020-07-22,04:10:00,DRY,1.97,17.63,12.3,777.33,1.6
2020-07-22,04:15:00,DRY,2.10,18.20,11.0,777.00,1.0
2020-07-22,04:20:00,DRY,1.70,18.47,10.7,777.00,1.8
2020-07-22,04:25:00,DRY,1.55,18.60,10.0,777.50,1.2
2020-07-22,04:30:00,DRY,1.33,18.47,10.0,777.67,1.5
2020-07-22,04:35:00,DRY,1.65,18.45,11.5,777.50,1.1
2020-07-22,04:40:00,DRY,1.20,18.33,12.0,777.67,1.5
2020-07-22,04:45:00,DRY,1.30,18.35,13.0,777.50,0.9
2020-07-22,04:50:00,DRY,1.57,18.23,13.0,777.33,1.4
2020-07-22,04:55:00,DRY,1.50,18.20,13.0,777.50,1.6
2020-07-22,05:00:00,DRY,1.70,18.23,13.0,778.00,1.0
2020-07-22,05:05:00,DRY,1.90,18.30,13.0,777.50,1.6
2020-07-22,05:10:00,DRY,2.03,18.47,13.0,777.67,1.5
2020-07-22,05:15:00,DRY,1.55,18.45,12.0,778.00,0.7
2020-07-22,05:20:00,DRY,1.13,18.47,12.0,777.67,1.3
2020-07-22,05:25:00,DRY,1.10,18.30,11.0,778.00,0.9
2020-07-22,05:30:00,DRY,1.40,18.27,12.7,778.00,1.4
2020-07-22,05:35:00,DRY,1.65,18.05,13.0,778.00,1.3
2020-07-22,05:40:00,DRY,1.67,18.20,13.0,778.00,0.8
2020-07-22,05:45:00,DRY,1.50,17.85,13.0,778.00,1.4
2020-07-22,05:50:00,DRY,1.50,18.10,12.3,778.00,0.5
2020-07-22,05:55:00,DRY,1.50,18.35,13.0,778.00,1.6
2020-07-22,06:00:00,DRY,1.27,18.30,13.0,778.00,1.4
2020-07-22,06:05:00,DRY,1.25,18.20,13.0,778.00,0.5
2020-07-22,06:10:00,DRY,1.37,18.10,13.0,778.00,1.9
2020-07-22,06:15:00,DRY,1.55,18.25,12.5,778.00,2.8
2020-07-22,06:20:00,DRY,1.60,18.37,11.7,778.00,4.2
2020-07-22,06:25:00,DRY,1.70,18.25,12.5,778.00,6.8
2020-07-22,06:30:00,DRY,1.53,18.47,13.0,778.00,12.6
2020-07-22,06:35:00,DRY,1.45,18.60,12.0,778.00,28.1
2020-07-22,06:40:00,DRY,1.73,18.53,11.7,778.00,45.1
2020-07-22,06:45:00,DRY,1.70,18.65,12.0,778.00,64.0
2020-07-22,06:50:00,DRY,1.67,18.70,11.7,778.00,87.0
2020-07-22,06:55:00,DRY,1.15,18.80,11.5,778.00,112.2
2020-07-22,07:00:00,DRY,0.90,19.17,9.7,778.00,132.2
2020-07-22,07:05:00,DRY,0.90,19.45,9.0,778.00,151.2
2020-07-22,07:10:00,DRY,0.80,19.63,9.0,778.00,170.9
2020-07-22,07:15:00,DRY,0.65,19.80,9.5,778.00,192.6
2020-07-22,07:20:00,DRY,0.23,20.10,8.7,778.00,213.3
2020-07-22,07:25:00,DRY,0.65,20.30,8.5,778.00,235.1
2020-07-22,07:30:00,DRY,0.50,19.73,9.0,778.00,257.1
2020-07-22,07:35:00,DRY,0.65,19.65,9.0,778.00,279.6
2020-07-22,07:40:00,DRY,0.87,19.97,10.3,778.00,301.6
2020-07-22,07:45:00,DRY,0.70,20.00,10.5,778.00,323.8
2020-07-22,07:50:00,DRY,0.63,19.83,9.0,778.00,346.7
2020-07-22,07:55:00,DRY,0.35,19.90,10.0,778.00,368.9
2020-07-22,08:00:00,DRY,0.43,20.57,9.7,778.00,392.8
2020-07-22,08:05:00,DRY,0.60,21.35,9.0,778.00,414.4
2020-07-22,08:10:00,DRY,1.00,20.43,9.3,778.00,437.7
2020-07-22,08:15:00,DRY,0.35,20.20,10.5,778.00,459.6
2020-07-22,08:20:00,DRY,1.27,20.47,10.7,778.00,482.0
2020-07-22,08:25:00,DRY,0.90,20.35,10.0,778.00,504.0
2020-07-22,08:30:00,DRY,0.57,20.90,10.0,778.00,524.8
2020-07-22,08:35:00,DRY,1.00,20.75,12.5,778.00,546.6
2020-07-22,08:40:00,DRY,1.83,20.43,11.0,778.00,569.0
2020-07-22,08:45:00,DRY,1.05,20.25,11.5,778.00,590.0
2020-07-22,08:50:00,DRY,1.20,20.73,10.7,778.00,610.3
2020-07-22,08:55:00,DRY,1.50,20.30,12.0,778.00,631.0
2020-07-22,09:00:00,DRY,1.53,20.63,12.0,778.00,652.3
2020-07-22,09:05:00,DRY,0.85,20.55,14.0,778.00,672.9
2020-07-22,09:10:00,DRY,1.10,20.90,13.7,778.00,690.7
2020-07-22,09:15:00,DRY,1.70,20.80,13.0,778.00,708.8
2020-07-22,09:20:00,DRY,2.50,20.60,14.0,778.00,719.9
2020-07-22,09:25:00,DRY,1.70,20.10,15.0,778.00,747.2
2020-07-22,09:30:00,DRY,1.50,20.37,14.7,778.00,766.6
2020-07-22,09:35:00,DRY,1.05,20.55,13.5,778.00,785.4
2020-07-22,09:40:00,DRY,2.17,20.87,16.0,778.00,799.9
2020-07-22,09:45:00,DRY,1.35,20.60,15.5,778.00,817.8
2020-07-22,09:50:00,DRY,1.73,20.67,16.0,778.00,838.5
2020-07-22,09:55:00,DRY,2.25,20.55,17.5,778.00,853.6
2020-07-22,10:00:00,DRY,1.30,20.10,16.0,778.00,871.8
2020-07-22,10:05:00,DRY,1.80,20.70,16.5,778.00,887.4
2020-07-22,10:10:00,DRY,1.90,20.70,16.0,778.00,903.4
2020-07-22,10:15:00,DRY,1.45,20.75,16.5,778.00,918.7
2020-07-22,10:20:00,DRY,2.53,21.30,15.7,778.00,931.8
2020-07-22,10:25:00,DRY,2.10,21.25,16.0,778.00,947.0
2020-07-22,10:30:00,DRY,1.83,20.97,15.3,778.00,960.1
2020-07-22,10:35:00,DRY,1.70,20.80,17.0,778.00,974.9
2020-07-22,10:40:00,DRY,0.75,20.95,15.5,778.50,993.5
2020-07-22,10:45:00,DRY,1.80,21.40,16.0,778.00,1005.6
2020-07-22,10:50:00,DRY,2.17,21.53,18.7,778.33,1018.2
2020-07-22,10:55:00,DRY,2.55,21.65,17.5,778.00,1024.0
2020-07-22,11:00:00,DRY,1.33,21.50,17.3,778.67,1040.2
2020-07-22,11:05:00,DRY,1.45,21.95,19.5,779.00,1051.0
2020-07-22,11:10:00,DRY,2.20,21.37,19.7,778.67,1062.8
2020-07-22,11:15:00,DRY,2.50,21.25,21.0,779.00,1073.2
2020-07-22,11:20:00,DRY,1.63,21.90,19.7,779.00,1081.5
2020-07-22,11:25:00,DRY,1.85,22.00,21.0,779.00,1091.3
2020-07-22,11:30:00,DRY,1.63,21.67,21.7,779.00,1098.4
2020-07-22,11:35:00,DRY,1.95,21.90,22.5,779.00,1107.2
2020-07-22,11:40:00,DRY,2.60,22.17,22.7,779.00,1115.9
2020-07-22,11:45:00,DRY,2.50,22.15,22.5,779.00,1119.1
2020-07-22,11:50:00,DRY,2.10,21.93,23.0,779.00,1129.3
2020-07-22,11:55:00,DRY,2.25,22.45,23.0,779.00,1132.4
2020-07-22,12:00:00,DRY,2.27,22.37,22.7,779.00,1138.9
2020-07-22,12:05:00,DRY,2.15,21.80,23.0,779.00,1145.7
2020-07-22,12:10:00,DRY,2.77,21.93,22.0,779.00,1153.6
2020-07-22,12:15:00,DRY,2.60,21.75,22.5,779.00,1161.0
2020-07-22,12:20:00,DRY,2.47,21.87,21.0,779.00,1164.9
2020-07-22,12:25:00,DRY,2.55,22.40,22.5,779.00,1167.6
2020-07-22,12:30:00,DRY,2.33,22.20,20.7,779.00,1174.3
2020-07-22,12:35:00,DRY,2.85,22.20,21.0,779.00,1176.4
2020-07-22,12:40:00,DRY,2.47,22.53,21.0,779.00,1178.2
2020-07-22,12:45:00,DRY,2.35,22.50,21.0,779.00,1179.2
2020-07-22,12:50:00,DRY,3.13,22.47,20.0,779.00,1181.8
2020-07-22,12:55:00,DRY,2.75,22.45,20.5,779.00,1184.5
2020-07-22,13:00:00,DRY,2.27,22.63,20.0,779.00,1187.2
2020-07-22,13:05:00,DRY,3.25,22.70,21.0,779.00,1185.8
2020-07-22,13:10:00,DRY,1.87,22.53,20.0,779.00,1187.7
2020-07-22,13:15:00,DRY,3.40,22.60,22.0,779.00,1184.8
2020-07-22,13:20:00,DRY,2.13,22.53,21.3,779.00,1187.6
2020-07-22,13:25:00,DRY,2.85,22.70,21.5,779.00,1183.7
2020-07-22,13:30:00,DRY,4.00,22.50,22.0,779.00,1185.1
2020-07-22,13:35:00,DRY,4.20,22.50,22.0,779.00,1183.8
2020-07-22,13:40:00,DRY,2.37,22.20,22.3,779.00,1184.2
2020-07-22,13:45:00,DRY,2.35,22.90,22.0,779.00,1187.7
2020-07-22,13:50:00,DRY,2.53,22.33,21.0,779.00,1188.4